When you browse on this site, cookies collect data to enhance your experience and personalize the content and advertising you see.
Visit our Privacy Policy to learn more. By continuing to use the site, you agree to this use of cookies and data.
  • In Spain
  • List of Countries
  • For 7 days
  • Water Temperature
  • Satellite Maps
  • Weather Map
  • Weather Widgets
  • user-avatar
    Login

    Hourly Weather Quito

    Today, 16 December, Sunday

    Time Temperature Precipitation Wind Pressure Humidity
    00:00 +18°C° 0.1 mm 1 mps 623 mmHg 90%
    01:00 +16°C° 0 mm 1 mps 623 mmHg 91%
    02:00 +16°C° 0.2 mm 1 mps 623 mmHg 91%
    03:00 +16°C° 0.2 mm 1 mps 623 mmHg 92%
    04:00 +16°C° 0.2 mm 1 mps 622 mmHg 93%
    05:00 +18°C° 0 mm 1 mps 623 mmHg 91%
    06:00 +19°C° 0 mm 1 mps 623 mmHg 89%
    07:00 +20°C° 0 mm 1 mps 624 mmHg 88%
    08:00 +21°C° 0.4 mm 1 mps 624 mmHg 81%
    09:00 +23°C° 0.4 mm 1 mps 625 mmHg 75%
    10:00 +25°C° 0.4 mm 1 mps 625 mmHg 68%
    11:00 +26°C° 0.4 mm 1 mps 625 mmHg 64%
    12:00 +27°C° 0.4 mm 1 mps 625 mmHg 59%
    13:00 +28°C° 0.4 mm 1 mps 625 mmHg 55%
    14:00 +27°C° 0.6 mm 1 mps 624 mmHg 60%
    15:00 +26°C° 0.6 mm 1 mps 624 mmHg 65%
    16:00 +25°C° 0.6 mm 1 mps 623 mmHg 70%
    17:00 +23°C° 1.2 mm 1 mps 623 mmHg 76%
    18:00 +21°C° 1.2 mm 1 mps 623 mmHg 82%
    19:00 +20°C° 1.2 mm 1 mps 622 mmHg 88%
    20:00 +19°C° 0.1 mm 1 mps 623 mmHg 89%
    21:00 +19°C° 0.1 mm 1 mps 623 mmHg 90%
    22:00 +18°C° 0.1 mm 1 mps 623 mmHg 91%
    23:00 +18°C° 0.1 mm 1 mps 623 mmHg 92%

    Tomorrow, 17 December, Monday

    Time Temperature Precipitation Wind Pressure Humidity
    00:00 +17°C° 0.1 mm 2 mps 623 mmHg 94%
    01:00 +17°C° 0.1 mm 2 mps 622 mmHg 95%
    02:00 +16°C° 0.3 mm 2 mps 622 mmHg 96%
    03:00 +16°C° 0.3 mm 2 mps 622 mmHg 96%
    04:00 +16°C° 0.3 mm 2 mps 622 mmHg 97%
    05:00 +17°C° 0.6 mm 2 mps 623 mmHg 96%
    06:00 +17°C° 0.6 mm 2 mps 623 mmHg 94%
    07:00 +18°C° 0.6 mm 2 mps 624 mmHg 93%
    08:00 +19°C° 0.9 mm 2 mps 624 mmHg 89%
    09:00 +20°C° 0.9 mm 2 mps 624 mmHg 84%
    10:00 +23°C° 0.9 mm 2 mps 625 mmHg 80%
    11:00 +23°C° 1.2 mm 2 mps 624 mmHg 78%
    12:00 +24°C° 1.2 mm 1 mps 624 mmHg 76%
    13:00 +25°C° 1.2 mm 1 mps 624 mmHg 74%
    14:00 +24°C° 1.1 mm 1 mps 623 mmHg 76%
    15:00 +24°C° 1.1 mm 2 mps 623 mmHg 78%
    16:00 +23°C° 1.1 mm 2 mps 622 mmHg 80%
    17:00 +21°C° 1.5 mm 2 mps 622 mmHg 84%
    18:00 +20°C° 1.5 mm 2 mps 622 mmHg 88%
    19:00 +18°C° 1.5 mm 2 mps 622 mmHg 92%
    20:00 +18°C° 0.4 mm 2 mps 622 mmHg 93%
    21:00 +17°C° 0.4 mm 2 mps 623 mmHg 94%
    22:00 +17°C° 0.4 mm 2 mps 623 mmHg 95%
    23:00 +17°C° 0.5 mm 2 mps 623 mmHg 95%

    Day after tomorrow, 18 December, Tuesday

    Time Temperature Precipitation Wind Pressure Humidity
    00:00 +17°C° 0.5 mm 2 mps 622 mmHg 95%
    01:00 +17°C° 0.5 mm 2 mps 622 mmHg 95%
    02:00 +17°C° 0.2 mm 2 mps 622 mmHg 96%
    03:00 +17°C° 0.2 mm 2 mps 622 mmHg 96%
    04:00 +18°C° 0.2 mm 1 mps 622 mmHg 96%
    05:00 +17°C° 0.5 mm 2 mps 622 mmHg 95%
    06:00 +17°C° 0.5 mm 2 mps 623 mmHg 94%
    07:00 +17°C° 0.5 mm 2 mps 623 mmHg 93%
    08:00 +19°C° 0.3 mm 2 mps 624 mmHg 87%
    09:00 +20°C° 0.3 mm 3 mps 624 mmHg 80%
    10:00 +22°C° 0.3 mm 3 mps 624 mmHg 74%
    11:00 +24°C° 0.7 mm 3 mps 624 mmHg 71%
    12:00 +25°C° 0.7 mm 2 mps 624 mmHg 67%
    13:00 +26°C° 0.7 mm 2 mps 623 mmHg 64%
    14:00 +25°C° 0.9 mm 2 mps 623 mmHg 67%
    15:00 +25°C° 0.9 mm 2 mps 622 mmHg 71%
    16:00 +25°C° 0.9 mm 2 mps 622 mmHg 74%
    17:00 +23°C° 0.6 mm 2 mps 622 mmHg 79%
    18:00 +20°C° 0.6 mm 2 mps 622 mmHg 84%
    19:00 +19°C° 0.6 mm 2 mps 621 mmHg 88%
    20:00 +18°C° 0.5 mm 2 mps 622 mmHg 89%
    21:00 +18°C° 0.5 mm 2 mps 622 mmHg 91%
    22:00 +17°C° 0.5 mm 3 mps 623 mmHg 92%
    23:00 +17°C° 0 mm 2 mps 622 mmHg 92%

    19 December, Wednesday

    Time Temperature Precipitation Wind Pressure Humidity
    00:00 +17°C° 0 mm 2 mps 622 mmHg 93%
    01:00 +16°C° 0 mm 2 mps 622 mmHg 94%
    02:00 +16°C° 0.1 mm 2 mps 621 mmHg 94%
    03:00 +16°C° 0.1 mm 2 mps 621 mmHg 94%
    04:00 +16°C° 0.1 mm 2 mps 621 mmHg 94%
    05:00 +16°C° 0 mm 2 mps 622 mmHg 93%
    06:00 +17°C° 0 mm 2 mps 622 mmHg 91%
    07:00 +17°C° 0 mm 2 mps 623 mmHg 90%
    08:00 +19°C° 0 mm 2 mps 624 mmHg 80%
    09:00 +21°C° 0 mm 3 mps 624 mmHg 70%
    10:00 +24°C° 0 mm 3 mps 625 mmHg 60%
    11:00 +25°C° 0.3 mm 3 mps 624 mmHg 58%
    12:00 +26°C° 0.3 mm 2 mps 624 mmHg 57%
    13:00 +27°C° 0.3 mm 2 mps 623 mmHg 55%
    14:00 +27°C° 0.4 mm 2 mps 623 mmHg 57%
    15:00 +26°C° 0.4 mm 2 mps 622 mmHg 60%
    16:00 +26°C° 0.4 mm 1 mps 622 mmHg 62%
    17:00 +24°C° 0.1 mm 1 mps 622 mmHg 67%
    18:00 +23°C° 0.1 mm 1 mps 622 mmHg 72%
    19:00 +21°C° 0.1 mm 1 mps 622 mmHg 77%
    20:00 +19°C° 0.1 mm 2 mps 622 mmHg 81%
    21:00 +19°C° 0.1 mm 2 mps 622 mmHg 84%
    22:00 +18°C° 0.1 mm 2 mps 622 mmHg 88%
    23:00 +17°C° 0.9 mm 2 mps 622 mmHg 90%

    20 December, Thursday

    Time Temperature Precipitation Wind Pressure Humidity
    00:00 +17°C° 0.9 mm 2 mps 622 mmHg 92%
    01:00 +17°C° 0.9 mm 2 mps 622 mmHg 94%
    02:00 +17°C° 0.1 mm 2 mps 622 mmHg 94%
    03:00 +17°C° 0.1 mm 2 mps 621 mmHg 94%
    04:00 +16°C° 0.1 mm 2 mps 621 mmHg 94%
    05:00 +17°C° 0 mm 2 mps 622 mmHg 92%
    06:00 +17°C° 0 mm 2 mps 622 mmHg 90%
    07:00 +18°C° 0 mm 2 mps 623 mmHg 89%
    08:00 +20°C° 0.2 mm 2 mps 623 mmHg 79%
    09:00 +23°C° 0.2 mm 2 mps 624 mmHg 70%
    10:00 +25°C° 0.2 mm 2 mps 624 mmHg 61%
    11:00 +26°C° 0.5 mm 2 mps 624 mmHg 58%
    12:00 +27°C° 0.5 mm 2 mps 624 mmHg 56%
    13:00 +28°C° 0.5 mm 1 mps 623 mmHg 54%
    14:00 +27°C° 0.5 mm 1 mps 623 mmHg 59%
    15:00 +26°C° 0.5 mm 2 mps 622 mmHg 64%
    16:00 +25°C° 0.5 mm 2 mps 622 mmHg 69%
    17:00 +23°C° 4.6 mm 2 mps 621 mmHg 76%
    18:00 +19°C° 4.6 mm 3 mps 621 mmHg 84%
    19:00 +17°C° 4.6 mm 3 mps 621 mmHg 92%
    20:00 +16°C° 2.2 mm 3 mps 621 mmHg 92%
    21:00 +16°C° 2.2 mm 2 mps 622 mmHg 91%
    22:00 +16°C° 2.2 mm 1 mps 622 mmHg 91%
    23:00 +16°C° 0.5 mm 1 mps 622 mmHg 92%

    21 December, Friday

    Time Temperature Precipitation Wind Pressure Humidity
    00:00 +16°C° 0.5 mm 1 mps 621 mmHg 92%
    01:00 +16°C° 0.5 mm 1 mps 621 mmHg 93%
    02:00 +16°C° 0.1 mm 1 mps 621 mmHg 94%
    03:00 +16°C° 0.1 mm 2 mps 621 mmHg 94%
    04:00 +16°C° 0.1 mm 2 mps 621 mmHg 95%
    05:00 +16°C° 0 mm 2 mps 621 mmHg 93%
    06:00 +16°C° 0 mm 2 mps 622 mmHg 92%
    07:00 +17°C° 0 mm 2 mps 622 mmHg 91%
    08:00 +19°C° 0.3 mm 2 mps 623 mmHg 85%
    09:00 +20°C° 0.3 mm 2 mps 623 mmHg 79%
    10:00 +23°C° 0.3 mm 2 mps 623 mmHg 73%
    11:00 +23°C° 0.6 mm 2 mps 623 mmHg 71%
    12:00 +24°C° 0.6 mm 2 mps 622 mmHg 69%
    13:00 +25°C° 0.6 mm 2 mps 622 mmHg 66%
    14:00 +25°C° 0.8 mm 2 mps 622 mmHg 68%
    15:00 +24°C° 0.8 mm 1 mps 621 mmHg 69%
    16:00 +24°C° 0.8 mm 1 mps 621 mmHg 70%
    17:00 +23°C° 0.5 mm 1 mps 620 mmHg 75%
    18:00 +21°C° 0.5 mm 1 mps 620 mmHg 79%
    19:00 +20°C° 0.5 mm 1 mps 620 mmHg 83%
    20:00 +20°C° 0.2 mm 1 mps 621 mmHg 85%
    21:00 +19°C° 0.2 mm 1 mps 621 mmHg 87%
    22:00 +19°C° 0.2 mm 1 mps 621 mmHg 89%
    23:00 +18°C° 0.3 mm 1 mps 621 mmHg 90%
    Show more